Flag for Thailand Weather past 2 weeks in Phuket, Thailand

Now
81 °F

Thunderstorms. Passing clouds.


Feels Like: 85 °F
Forecast: 80 / 91 °F
Wind: 3 mph from North

Location: Phuket Airport

Current Time: Apr 26, 2015 at 7:42:51 PM

Latest Report: Apr 26, 2015 at 7:00 PM


Visibility: 4 mi

Pressure: 29.83 "Hg

Humidity: 74%

Dew point: 72 °F

Location of PhuketLocation

Historic Weather in Phuket — Graph

°F

Phuket temperature yesterday

Maximum temperature yesterday: 90 °F (at 12:00 PM)
Minimum temperature yesterday: 75 °F (at 12:00 AM)
Average temperature yesterday: 82 °F

Past Weeks' High & Low Weather Summary

 TemperatureHumidityPressure
High93 °F (Apr 12, 1:00 PM)94% (Apr 13, 4:30 PM)29.98 "Hg (Apr 13, 4:30 PM)
Low73 °F (Apr 13, 4:30 PM)44% (Apr 12, 3:00 PM)29.74 "Hg (Apr 17, 4:00 PM)
Average84 °F73%29.85 "Hg
* Reported Apr 11 6:00 PM — Apr 26 6:30 PM, Phuket, Weather by CustomWeather, © 2015

Note: Actual official high and low records may vary slightly from our data, if they occured in-between our weather recording intervals... More about our weather records

Advertising

Phuket weather history for previous 24 hours

 ConditionsComfort  
Time TempWeatherWind HumidityBarometerVisibility
6:30 PM
Sun, Apr 26
81 °FThunderstorms. Partly sunny.10 mph74%29.80 "Hg4 mi
6:00 PM86 °FScattered showers. Broken clouds.6 mph62%29.80 "Hg4 mi
5:30 PM88 °FBroken clouds.7 mph62%29.77 "Hg5 mi
5:00 PM90 °FBroken clouds.7 mph59%29.77 "Hg5 mi
4:30 PM90 °FBroken clouds.8 mph55%29.77 "Hg5 mi
4:00 PM91 °FBroken clouds.8 mph56%29.77 "Hg5 mi
3:30 PM91 °FBroken clouds.8 mph52%29.77 "Hg5 mi
3:00 PM91 °FBroken clouds.7 mph56%29.77 "Hg5 mi
2:30 PM91 °FBroken clouds.9 mph56%29.80 "Hg5 mi
2:00 PM91 °FBroken clouds.9 mph52%29.83 "Hg5 mi
1:30 PM90 °FBroken clouds.9 mph59%29.83 "Hg5 mi
1:00 PM88 °FBroken clouds.9 mph62%29.83 "Hg5 mi
12:30 PM90 °FBroken clouds.10 mph59%29.86 "HgN/A
12:00 PM90 °FPartly sunny.10 mph59%29.86 "HgN/A
11:30 AM88 °FPartly sunny.10 mph62%29.89 "HgN/A
11:00 AM88 °FPartly sunny.10 mph62%29.89 "HgN/A
10:30 AM88 °FPartly sunny.10 mph62%29.89 "HgN/A
10:00 AM86 °FPartly sunny.6 mph70%29.89 "Hg6 mi
9:30 AM86 °FPartly sunny.6 mph70%29.89 "Hg6 mi
9:00 AM84 °FPartly sunny.7 mph74%29.92 "Hg6 mi
8:30 AM84 °FPartly sunny.3 mph74%29.92 "Hg6 mi
8:00 AM81 °FBroken clouds.No wind84%29.89 "HgN/A
7:30 AM81 °FBroken clouds.1 mph84%29.89 "HgN/A
7:00 AM79 °FBroken clouds.No wind89%29.86 "HgN/A
6:30 AM79 °FBroken clouds.No wind84%29.86 "HgN/A
6:00 AM79 °FPartly cloudy.1 mph84%29.86 "Hg5 mi
5:30 AM81 °FPartly cloudy.3 mph79%29.86 "Hg5 mi
5:00 AM81 °FPartly cloudy.3 mph79%29.83 "Hg5 mi
3:00 AM77 °FPartly cloudy.1 mph89%29.83 "Hg5 mi
2:30 AM79 °FPartly cloudy.1 mph84%29.83 "Hg5 mi
2:00 AM79 °FPartly cloudy.1 mph84%29.83 "Hg5 mi
1:30 AM79 °FPartly cloudy.2 mph89%29.83 "Hg5 mi
1:00 AM79 °FPartly cloudy.No wind89%29.86 "Hg5 mi
12:30 AM79 °FPartly cloudy.2 mph89%29.86 "Hg5 mi
12:00 AM79 °FPartly cloudy.No wind89%29.86 "Hg5 mi
11:30 PM
Sat, Apr 25
79 °FWarm.1 mph89%29.89 "Hg5 mi
11:00 PM79 °FPartly cloudy.No wind89%29.89 "Hg5 mi
10:30 PM81 °FPartly cloudy.No wind84%29.89 "Hg5 mi
10:00 PM81 °FPartly cloudy.2 mph84%29.89 "Hg5 mi
9:30 PM81 °FPartly cloudy.2 mph79%29.86 "Hg5 mi
9:00 PM81 °FThunderstorms. Partly cloudy.No wind79%29.83 "Hg4 mi
8:30 PM82 °FThunderstorms. Partly cloudy.2 mph70%29.83 "Hg4 mi
8:00 PM82 °FThunderstorms. Passing clouds.No wind70%29.83 "Hg5 mi
7:30 PM84 °FPassing clouds.3 mph70%29.83 "HgN/A
7:00 PM84 °FPassing clouds.No wind70%29.80 "HgN/A
Weather by CustomWeather, © 2015

See weather overviewHow to use our weather pages